Regional Weather Roundup
Issued by NWS Charleston, SC

Current Version | Previous Version | Graphics & Text | Print | Product List | Glossary On
Versions: 1 2 3 4 5 6 7 8 9 10 11 12 13 14 15 16 17 18 19 20 21 22 23 24 25 26 27 28 29 30 31 32 33 34 35 36 37 38 39 40 41 42 43 44 45 46 47 48 49 50
000
ASUS42 KCHS 222227
RWRCHS

REGIONAL WEATHER ROUNDUP
NATIONAL WEATHER SERVICE CHARLESTON SC
600 PM EDT THU JUN 22 2017

NOTE: "FAIR" INDICATES FEW OR NO CLOUDS BELOW 12,000 FEET WITH NO
SIGNIFICANT WEATHER AND/OR OBSTRUCTIONS TO VISIBILITY.

NOT ALL STATIONS ARE QUALITY CONTROLLED. USE DATA WITH CAUTION...
ESPECIALLY DEWPOINT OBSERVATIONS.

SCZ027-030-031-034>040-042>050-222300-
...SOUTHEAST SOUTH CAROLINA...

CITY           SKY/WX    TMP DP  RH WIND       PRES   REMARKS
N CHARLESTON   CLOUDY    83  75  77 S10       30.07R HX  90
WATERFRONT PRK   N/A     83  78  84 S9        30.04F HX  93
JOHNS ISLAND   CLOUDY    82  79  89 S7        30.07R HX  93
PINOPOLIS      NOT AVBL
MONCKS CORNER    N/A     72  70  94 CALM      30.08S
SUMMERVILLE    TSTM      77  73  88 N5        30.09R
BEAUFORT MCAS  CLOUDY    85  80  85 SE6       30.05S HX  99
BEAUFORT ARPT  MOCLDY    82  77  83 S9        30.05R HX  91
HILTON HEAD IS CLOUDY    84  79  84 S9        30.06  HX  96
WALTERBORO     CLOUDY    79  77  94 E5        30.07R
ALLENDALE      FAIR      84  75  74 SE5       30.03F HX  92

...SOUTHERN MIDLANDS AND PEE DEE...

CITY           SKY/WX    TMP DP  RH WIND       PRES   REMARKS
GEORGETOWN     FAIR      77  75  94 CALM      30.08S
KINGSTREE      FAIR      84  73  70 E3        30.06R HX  91
ORANGEBURG     CLOUDY    87  77  72 SE7       30.05S HX  99
BARNWELL       FAIR      88  77  70 SE6       30.04S HX 100
AIKEN          FAIR      82  73  74 SE7       30.08S
MANNING        FAIR      86  79  79 SE6       30.06R HX  99
COLUMBIA       CLOUDY    84  73  69 NE7       30.03F HX  90
SUMTER         CLOUDY    83  72  69 NE8       30.03S
FLORENCE       CLOUDY    82  74  76 NE7       30.07S
MYRTLE BEACH   NOT AVBL
N MYRTLE BEACH CLOUDY    80  76  87 S5        30.07F

$$

GAZ063-065-086>088-099>101-113>116-118-119-134>141-150-222300-
...SOUTHEAST GEORGIA...

CITY           SKY/WX    TMP DP  RH WIND       PRES   REMARKS
SAVANNAH ARPT  CLOUDY    85  75  72 S12       30.04F HX  93
HUNTER AAF     PTSUNNY   84  77  80 CALM      30.02F HX  93
FORT STEWART   PTSUNNY   80  74  84 CALM      30.02F
STATESBORO     CLOUDY    90  75  61 S3        30.03F HX 100
SYLVANIA       PTCLDY    90  78  68 S3        30.04F HX 103
CLAXTON        FAIR     N/A N/A N/A E5        30.02F

...CSRA...CENTRAL AND FAR SOUTHEAST GEORGIA...

CITY           SKY/WX    TMP DP  RH WIND       PRES   REMARKS
THOMSON        MOSUNNY   85  74  68 SW5       30.08S HX  92
AUGUSTA-BUSH   MOSUNNY   90  75  61 S7        30.01F HX 100
AUGUSTA-DANIEL MOSUNNY   90  70  51 S8        30.03F HX  95
SWAINSBORO     FAIR      90  73  58 S6        30.03F HX  98
VIDALIA        MOSUNNY   90  75  62 SE5       30.02F HX 100
EASTMAN        FAIR      91  60  35 S6        30.03F HX  90
HAZLEHURST     FAIR      91  76  60 SE3       30.00F HX 102
ALMA           CLOUDY    88  77  69 S9        30.02S HX 100
WAYCROSS       NOT AVBL
JESUP          FAIR      82  73  74 CALM      30.04R
BAXLEY         PTSUNNY   91  79  66 SE3       30.01F HX 107
BRUNSWICK      CLOUDY    88  77  70 S14       30.04S THUNDER HX 100
SAINT SIMONS   MOSUNNY   85  77  77 SE13      30.04S HX  95

$$

SCZ027-028-034-036>038-045-046-048>050-GAZ119-141-222300-
...LAKE AND SUPPLEMENTAL COASTAL OBSERVATIONS...

STATION/POSITION TIME  TEMP    WIND        PRES    WAVE   SWELL
                       AIR SEA DIR/SP/G            HT/PER HT/PER/DIR
                 (UTC) (F)     (DEG/KT/KT) (MB)    (FT/S) (FT/S/D)
WINYAH BAY       2145   79     120/  1     1018.0S
LAKE MURRAY      2130   80      CALM  /  4 1016.9S
ACE BASIN NERRS  2145   83        CALM     1018.0S
FORT PULASKI     2200   83 84  200/  6/ 11 1017.7
SAPELO ISLAND    2200   84     150/  8     1017.0

$$

ANZ835-935-AMZ111-154-330-350-352-354-370-450-454-472-222300-
...C-MAN AND BUOY OBSERVATIONS...

STATION/POSITION TIME  TEMP    WIND        PRES    WAVE   SWELL
                       AIR SEA DIR/SP/G            HT/PER HT/PER/DIR
                 (UTC) (F)     (DEG/KT/KT) (MB)    (FT/S) (FT/S/D)
BUOY 41004       2210   81 81  180/ 12/ 14 1018.0
BUOY 41008       2150   82 82  160/ 14/ 14 1016.9F   3/ 8   2/120/ 8
FOLLY BEACH CMAN 2200   82     180/  9/ 12 1018.9R
CAPERS NEARSHORE 2208   86 83  200/ 12/ 16 1018.0R
FRIPP NEARSHORE  2208   82 83  190/ 14/ 16 1017.1S


STATION/POSITION TIME  TEMP    WIND        PRES    WAVE   SWELL
                       AIR SEA DIR/SP/G            HT/PER HT/PER/DIR
                 (UTC) (F)     (DEG/KT/KT) (MB)    (FT/S) (FT/S/D)
5E ST. MARYS GA  2200      81                N/A     4/ 7
FRYING PAN BUOY  2210   82     210/  6/  8 1018.1
BUOY 41025       2150   80 81  240/ 14/ 17 1017.4F   2/ 7   2/190/ 7
CAPE LOOKOUT NC  2200   80     250/  8/ 11 1017.9F
BUOY 41002       2050   81 83  220/ 10/ 12 1019.6    4/ 8   5/120/ 8
BUOY 41010       2210   82 83  140/ 10/ 14 1018.5
ST AUGUSTINE FL  2200   79 80  150/ 15/ 16 1017.8F


$$




USA.gov is the U.S. government's official web portal to all federal, state and local government web resources and services.